AirNav   ProFlight Series 2 Aviation Headset
 
 1171 users online  

FA95 Advent Health Lake Mary ER Heliport
Lake Mary, Florida, USA

GOING TO LAKE MARY?


FAA INFORMATION EFFECTIVE 13 AUGUST 2020

Location

FAA Identifier: FA95
Lat/Long: 28-47-01.4600N 081-20-55.4200W
28-47.024333N 081-20.923667W
28.7837389,-81.3487278
(estimated)
Elevation: 68 ft. / 21 m (estimated)
From city: 2 miles NW of LAKE MARY, FL
Time zone: UTC -4 (UTC -5 during Standard Time)
Zip code: 32746

Heliport Operations

Heliport use: Private use. Permission required prior to landing
Activation date: 12/2016
Control tower: no
ARTCC: JACKSONVILLE CENTER
FSS: SAINT PETERSBURG FLIGHT SERVICE STATION
Attendance: 
Wind indicator: yes
Segmented circle: no

Heliport Communications

WX ASOS at SFB (6 nm E): PHONE 407-321-9384
WX ASOS at ORL (14 nm S): PHONE 407-658-6753
WX AWOS-3 at DED (17 nm N): 119.575 (386-740-5811)

Nearby radio navigation aids

VOR radial/distance  VOR name  Freq  Var
ORLr357/14.5ORLANDO VORTAC112.2000E
OMNr202/33.5ORMOND BEACH VORTAC112.6000E

Heliport Services

Runway Information

Helipad H1

Dimensions: 40 x 40 ft. / 12 x 12 m
Surface: concrete
Traffic pattern: leftleft

Heliport Ownership and Management from official FAA records

Ownership: Privately-owned
Owner: ADVENTIST HEALTH SYSTEM
900 WINDERTY PLACE SUITE 205
MAITLAND, FL 32751
Phone 407-303-1610
Manager: RICHARD NETTLES
601 EAST ROLLINS ST., BOX 161
ORLANDO, FL 32803
Phone 407-303-5645

Additional Remarks

FOR CD CTC ORLANDO APCH AT 407-852-7553.

Instrument Procedures

There are no published instrument procedures at FA95.

Some nearby airports with instrument procedures:

KSFB - Orlando Sanford International Airport (6 nm E)
X04 - Orlando Apopka Airport (13 nm W)
KORL - Executive Airport (14 nm S)
KDED - DeLand Municipal Airport-Sidney H Taylor Field (17 nm N)
X23 - Umatilla Municipal Airport (18 nm NW)
 
Loc | Ops | Rwys | IFR | FBO | Links
Com | Nav | Svcs | Stats | Notes
Aerial photo
No photo
 
Airport distance calculator
Flying to Advent Health Lake Mary ER Heliport? Find the distance to fly.

From to FA95

Sunrise and sunset
Times for 14-Aug-2020
 Local
(UTC-4)
 Zulu
(UTC)
Morning civil twilight06:3110:31
Sunrise06:5510:55
Sunset20:0400:04
Evening civil twilight20:2900:29

Current date and time
Zulu (UTC)  14-Aug-2020 23:15:12
Local (UTC-4)  14-Aug-2020 19:15:12
 
METAR
KSFB 
7nm E 
142303Z 03009KT 10SM TS CLR 27/22 A2996 RMK AO2 LTG DSNT E-S TSB2257 T02670217
KORL 
14nm S 
142253Z AUTO VRB05KT 10SM VCTS CLR 31/21 A2994 RMK AO2 LTG DSNT ALQDS SLP141 T03110211
KDED 
17nm N 
142255Z AUTO 06004KT 10SM -VCTSRA CLR 23/22 A2998 RMK AO2 LTG DSNT N THRU SE P0002 T02280218
TAF
KSFB 
7nm E 
142102Z 1421/1518 VRB06KT P6SM VCTS SCT050CB BKN090 BKN110 TEMPO 1421/1422 VRB15G30KT 2SM +TSRA BKN030CB BKN060 FM150000 17004KT P6SM FEW030 SCT250 FM151400 23006KT P6SM FEW035 SCT250
NOTAMs
Click for the latest NOTAMs
NOTAMs are issued by the DoD/FAA and will open in a separate window not controlled by AirNav.

 

 
 

Would you like to see your business listed on this page?

 If your business provides an interesting product or service to pilots, flight crews, aircraft, or users of the Advent Health Lake Mary ER Heliport, you should consider listing it here.  To start the listing process, click on the button below
 
Add a business
 

Other Pages about Advent Health Lake Mary ER Heliport

Update a link
 
Copyright © AirNav, LLC. All rights reserved. Privacy Policy  Contact